Location: Lugano
(46.0000°N, 8.9670°E)
Time: 16:34:11
(UTC+02:00)

Envisat - Pass Details

Date: 14 March 2026
Orbit: 761 x 762 km, 98.4° (Epoch: 19 April)

Event Time Altitude Azimuth Distance (km) Brightness Sun altitude
Rises 02:42:27 0° 18° (NNE) 3,235 7.0 -38.3°
Reaches altitude 10° 02:44:50 10° 24° (NNE) 2,305 6.1 -38.0°
Enters shadow 02:46:56 24° 35° (NE) 1,542 5.0 -37.7°
